Weather History for EGNH - February, 2014

Change the Weather History Date:

Wednesday, February 19, 2014

  Actual Average Record
Temperature  
Mean Temperature 46 °F -  
Max Temperature 50 °F 46 °F 51 °F (1998)
Min Temperature 42 °F 37 °F 28 °F (2003)
Degree Days  
Heating Degree Days 19    
Moisture  
Dew Point 45 °F    
Average Humidity 89    
Maximum Humidity 100    
Minimum Humidity 74    
Precipitation  
Precipitation 0.02 in - - ()
Sea Level Pressure  
Sea Level Pressure 29.76 in    
Wind  
Wind Speed 10 mph ()    
Max Wind Speed 17 mph    
Max Gust Speed -    
Visibility 6.0 miles    
Events Rain    
Averages and records for this station are not official NWS values.
T = Trace of Precipitation, MM = Missing Value Source: Averaged Metar Reports

Daily Weather History Graph

Daily Weather History Graph

Search for Another Location

Airport or City:

Trip Planner

Search our weather history database for the weather conditions in past years. The results will help you decide how hot, cold, wet, or windy it might be!

Date:

Astronomy

Feb. 19, 2014 Rise Set
Actual Time 7:23 AM GMT 5:29 PM GMT
Civil Twilight 6:47 AM GMT 6:05 PM GMT
Nautical Twilight 6:06 AM GMT 6:46 PM GMT
Astronomical Twilight 5:25 AM GMT 7:27 PM GMT
Moon 10:56 PM GMT (2/19) 8:38 AM GMT (2/19)
Length of Visible Light 11h 18m
Length of Day
10h 06m
Waning Gibbous, 81% of the Moon is Illuminated
Feb 19
Waning Gibbous
Feb 22
Last Quarter
Mar 1
New
Mar 8
First Quarter
Mar 16
Full

Hourly Weather History & Observations

Time (GMT) Temp. Windchill Dew Point Humidity Pressure Visibility Wind Dir Wind Speed Gust Speed Precip Events Conditions
12:00 AM 45 °F - 44 °F 92%  in - WSW 15.0 mph - -  
1:00 AM 45 °F - 43 °F 88%  in - WSW 13.8 mph - -  
2:00 AM 45 °F - 43 °F 91%  in - WSW 13.8 mph - -  
3:00 AM 44 °F - 43 °F 96%  in - WSW 11.5 mph - -  
4:00 AM 45 °F - 43 °F 91%  in - WSW 11.5 mph - -  
5:00 AM 45 °F - 43 °F 91%  in - WSW 11.5 mph - -  
6:00 AM 45 °F - 44 °F 93%  in - West 11.5 mph - -  
6:20 AM 44.6 °F 40.7 °F 44.6 °F 100% 29.77 in 4.3 mi WSW 6.9 mph - N/A Rain Light Rain
6:50 AM 44.6 °F 39.7 °F 44.6 °F 100% 29.77 in 5.0 mi SW 9.2 mph - N/A   Mostly Cloudy
7:00 AM 44 °F - 44 °F 99%  in - WSW 11.5 mph - -  
7:20 AM 44.6 °F 40.2 °F 42.8 °F 93% 29.77 in 5.0 mi SSW 8.1 mph - N/A   Mostly Cloudy
7:50 AM 44.6 °F 39.2 °F 44.6 °F 100% 29.77 in 5.6 mi SW 10.4 mph - N/A   Mostly Cloudy
8:00 AM 44 °F - 44 °F 99%  in - SW 12.7 mph - -  
8:20 AM 44.6 °F 39.2 °F 44.6 °F 100% 29.77 in 5.6 mi SW 10.4 mph - N/A   Mostly Cloudy
8:50 AM 44.6 °F 39.7 °F 44.6 °F 100% 29.80 in 5.6 mi WSW 9.2 mph - N/A   Mostly Cloudy
9:00 AM 45 °F - 44 °F 96%  in - WSW 10.4 mph - -  
9:20 AM 46.4 °F 42.9 °F 44.6 °F 93% 29.80 in 6.2 mi SW 6.9 mph - N/A   Mostly Cloudy
9:50 AM 46.4 °F 42.4 °F 46.4 °F 100% 29.80 in 6.2 mi SW 8.1 mph - N/A   Mostly Cloudy
10:00 AM 46 °F - 45 °F 95%  in - WSW 9.2 mph - -  
10:20 AM 46.4 °F 42.4 °F 46.4 °F 100% 29.80 in 6.2 mi SW 8.1 mph - N/A   Partly Cloudy
11:00 AM 47 °F - 46 °F 92%  in - WSW 11.5 mph - -  
11:20 AM 48.2 °F - 46.4 °F 93% 29.80 in 6.2 mi SW 8.1 mph - N/A   Partly Cloudy
11:50 AM 48.2 °F - 46.4 °F 93% 29.83 in 6.2 mi SW 9.2 mph - N/A   Partly Cloudy
12:00 PM 48 °F - 45 °F 87%  in - SW 9.2 mph - -  
12:20 PM 48.2 °F - 46.4 °F 93% 29.80 in 6.2 mi SSW 8.1 mph - N/A   Partly Cloudy
12:50 PM 50.0 °F - 46.4 °F 87% 29.80 in 6.2 mi SSW 8.1 mph - N/A   Partly Cloudy
1:00 PM 49 °F - 45 °F 83%  in - SW 8.1 mph - -  
1:20 PM 48.2 °F - 44.6 °F 87% 29.80 in 6.2 mi SSW 9.2 mph - N/A   Partly Cloudy
2:00 PM 48 °F - 44 °F 83%  in - SSW 5.8 mph - -  
2:20 PM 48.2 °F - 44.6 °F 87% 29.80 in 6.2 mi South 4.6 mph - N/A   Partly Cloudy
2:50 PM 48.2 °F - 44.6 °F 87% 29.77 in 6.2 mi Variable 3.5 mph - N/A   Partly Cloudy
3:00 PM 48 °F - 44 °F 79%  in - SSW 4.6 mph - -  
3:50 PM 50.0 °F - 44.6 °F 82% 29.77 in 6.2 mi SE 8.1 mph - N/A   Partly Cloudy
4:00 PM 50 °F - 44 °F 74%  in - SSE 10.4 mph - -  
4:20 PM 50.0 °F - 44.6 °F 82% 29.74 in 6.2 mi SE 9.2 mph - N/A   Partly Cloudy
4:50 PM 50.0 °F - 44.6 °F 82% 29.74 in 6.2 mi ESE 9.2 mph - N/A   Partly Cloudy
5:00 PM 49 °F - 44 °F 76%  in - SE 9.2 mph - -  
5:20 PM 50.0 °F - 44.6 °F 82% 29.74 in 6.2 mi SE 8.1 mph - N/A   Scattered Clouds
5:50 PM 50.0 °F - 44.6 °F 82% 29.71 in 6.2 mi SE 10.4 mph - N/A   Scattered Clouds
6:00 PM 49 °F - 45 °F 79%  in - SSE 11.5 mph - -  
6:20 PM 48.2 °F - 44.6 °F 87% 29.71 in 6.2 mi SE 9.2 mph - N/A   Scattered Clouds
7:00 PM 49 °F - 45 °F 80%  in - SSE 12.7 mph - -  
7:20 PM 48.2 °F - 44.6 °F 87% 29.68 in 6.2 mi SE 12.7 mph - N/A   Scattered Clouds
7:50 PM 50.0 °F - 44.6 °F 82% 29.68 in 6.2 mi SE 12.7 mph - N/A   Scattered Clouds
8:00 PM 49 °F - 44 °F 77%  in - SSE 13.8 mph - -  
8:20 PM 50.0 °F - 44.6 °F 82% 29.68 in 6.2 mi SE 12.7 mph - N/A Rain Light Rain
8:50 PM 48.2 °F - 46.4 °F 93% 29.65 in 6.2 mi SE 12.7 mph - N/A Rain Light Rain
9:00 PM 48 °F - 45 °F 87%  in - SSE 13.8 mph - -  
10:00 PM 48 °F - 46 °F 89%  in - SSE 16.1 mph - -  
11:00 PM 48 °F - 46 °F 91%  in - SSE 17.3 mph - -